Veracruz Airport, Mexico

8:43 AM CDT on July 23, 2017 (GMT -0500)
Gen Heriberto Jara International

Weather History for MMVR - May, 2013

Change the Weather History Date:

Wednesday, May 8, 2013

  Actual Average Record
Temperature  
Mean Temperature 78 °F -  
Max Temperature 86 °F 89 °F 102 °F (1998)
Min Temperature 71 °F 73 °F 69 °F (1998)
Cooling Degree Days 14    
Growing Degree Days 28 (Base 50)    
Moisture  
Dew Point 71 °F    
Average Humidity 80    
Maximum Humidity 94    
Minimum Humidity 58    
Precipitation  
Precipitation 0.00 in - - ()
Sea Level Pressure  
Sea Level Pressure 29.92 in    
Wind  
Wind Speed 4 mph ()    
Max Wind Speed 14 mph    
Max Gust Speed -    
Visibility 5.4 miles    
Events      
Averages and records for this station are not official NWS values.
T = Trace of Precipitation, MM = Missing Value Source: Averaged Metar Reports

Daily Weather History Graph

Daily Weather History Graph

Search for Another Location

Airport or City:

Trip Planner

Search our weather history database for the weather conditions in past years. The results will help you decide how hot, cold, wet, or windy it might be!

Date:

Astronomy

May. 08, 2013 Rise Set
Actual Time 6:52 AM CDT 7:49 PM CDT
Civil Twilight 6:29 AM CDT 8:13 PM CDT
Nautical Twilight 6:02 AM CDT 8:40 PM CDT
Astronomical Twilight 5:34 AM CDT 9:08 PM CDT
Moon 5:51 AM CDT (5/8) 6:54 PM CDT (5/8)
Length of Visible Light 13h 43m
Length of Day
12h 57m
Waning Crescent, 2% of the Moon is Illuminated
May 8
Waning Crescent
May 9
New
May 17
First Quarter
May 24
Full
May 31
Last Quarter

Hourly Weather History & Observations

Time (CDT) Temp. Heat Index Dew Point Humidity Pressure Visibility Wind Dir Wind Speed Gust Speed Precip Events Conditions
12:49 AM 73.4 °F - 69.8 °F 88% 29.94 in 6.0 mi West 3.5 mph - N/A   Mostly Cloudy
1:48 AM 71.6 °F - 69.8 °F 94% 29.99 in 6.0 mi Calm Calm - N/A   Mostly Cloudy
2:43 AM 71.6 °F - 69.8 °F 94% 29.96 in 6.0 mi West 3.5 mph - N/A   Scattered Clouds
3:53 AM 71.6 °F - 69.8 °F 94% 29.90 in 6.0 mi NNW 3.5 mph - N/A   Scattered Clouds
4:49 AM 71.6 °F - 69.8 °F 94% 29.95 in 6.0 mi WNW 3.5 mph - N/A   Overcast
5:48 AM 73.4 °F - 69.8 °F 88% 29.96 in 6.0 mi Calm Calm - N/A   Overcast
6:50 AM 73.4 °F - 69.8 °F 88% 29.95 in 6.0 mi Calm Calm - N/A   Overcast
7:50 AM 73.4 °F - 71.6 °F 94% 30.00 in 5.0 mi Calm Calm - N/A   Overcast
8:45 AM 75.2 °F - 71.6 °F 89% 30.00 in 5.0 mi Calm Calm - N/A   Overcast
9:46 AM 78.8 °F - 71.6 °F 78% 29.98 in 5.0 mi South 4.6 mph - N/A   Mostly Cloudy
10:42 AM 82.4 °F 86.3 °F 69.8 °F 66% 29.98 in 5.0 mi ESE 4.6 mph - N/A   Mostly Cloudy
11:46 AM 86.0 °F 90.4 °F 69.8 °F 58% 29.96 in 5.0 mi SE 5.8 mph - N/A   Mostly Cloudy
12:45 PM 86.0 °F 91.8 °F 71.6 °F 62% 29.93 in 5.0 mi ESE 9.2 mph - N/A   Mostly Cloudy
1:42 PM 82.4 °F 87.2 °F 71.6 °F 70% 29.92 in 5.0 mi East 11.5 mph - N/A   Mostly Cloudy
2:43 PM 84.2 °F 89.6 °F 71.6 °F 66% 29.90 in 5.0 mi East 12.7 mph - N/A   Mostly Cloudy
3:44 PM 84.2 °F 89.6 °F 71.6 °F 66% 29.86 in 5.0 mi East 10.4 mph - N/A   Mostly Cloudy
4:47 PM 84.2 °F 89.6 °F 71.6 °F 66% 29.85 in 5.0 mi SE 11.5 mph - N/A   Scattered Clouds
5:42 PM 80.6 °F 84.6 °F 71.6 °F 74% 29.85 in 5.0 mi East 12.7 mph - N/A   Scattered Clouds
6:49 PM 78.8 °F - 73.4 °F 83% 29.81 in 5.0 mi ESE 13.8 mph - N/A   Scattered Clouds
7:44 PM 78.8 °F - 73.4 °F 83% 29.87 in 5.0 mi ESE 13.8 mph - N/A   Scattered Clouds
8:47 PM 78.8 °F - 73.4 °F 83% 29.90 in 5.0 mi NNW 3.5 mph - N/A   Clear
9:49 PM 77.0 °F - 71.6 °F 83% 29.86 in 6.0 mi North 3.5 mph - N/A   Clear
10:43 PM 77.0 °F - 71.6 °F 83% 29.94 in 6.0 mi WNW 3.5 mph - N/A   Clear